AD8BW Weather Reports


time (UTC)temp
C
wind
direction
speed
KPH
gust
KPH
rain 1hr
cm
rain 24hr
cm
rain mn
cm
humidity
%
barometer
mb
20260903063725 22 202 0.0 6.4 0.00 0.00 0.00 89 1013.1
20260903062718 22 202 0.0 0.0 0.00 0.00 0.00 89 1013.3
20260903061714 22 202 3.2 8.0 0.00 0.00 0.00 89 1013.4
20260903060711 22 192 0.0 0.0 0.00 0.00 0.00 88 1013.5
20260903055711 22 189 0.0 0.0 0.00 0.00 0.00 88 1013.5
20260903054715 22 189 0.0 0.0 0.00 0.00 0.00 88 1013.5
20260903053712 22 189 0.0 0.0 0.00 0.00 0.00 88 1013.4
20260903052711 22 189 0.0 3.2 0.00 0.00 0.00 88 1013.5
20260903051712 23 205 0.0 3.2 0.00 0.00 0.00 87 1013.6
20260903050719 23 205 0.0 6.4 0.00 0.00 0.00 87 1013.6
20260903045710 23 205 0.0 0.0 0.00 0.00 0.00 87 1013.7
20260903044711 23 205 0.0 3.2 0.00 0.00 0.00 87 1013.4
20260903043709 23 205 0.0 6.4 0.00 0.00 0.00 86 1013.5
20260903042710 23 187 3.2 14.5 0.00 0.00 0.00 86 1013.5
20260903041709 23 191 6.4 14.5 0.00 0.00 0.00 86 1013.5
20260903040709 24 198 0.0 6.4 0.00 0.00 0.00 85 1013.3
20260903035707 24 194 0.0 11.3 0.00 0.00 0.00 85 1013.3
20260903034710 24 194 3.2 8.0 0.00 0.00 0.00 85 1013.4
20260903033710 25 188 6.4 19.3 0.00 0.00 0.00 86 1013.5
20260903032704 24 175 3.2 14.5 0.00 0.00 0.00 86 1013.1
20260903031703 24 165 6.4 17.7 0.00 0.00 0.00 85 1013.5
20260903030701 24 200 3.2 8.0 0.00 0.00 0.00 85 1012.8
20260903025705 25 355 0.0 3.2 0.00 0.00 0.00 85 1012.6
20260903024704 24 355 0.0 3.2 0.00 0.00 0.00 85 1011.7
20260903023700 25 355 0.0 6.4 0.00 0.00 0.00 85 1012.3
20260903022701 25 325 0.0 0.0 0.00 0.00 0.00 85 1012.1
20260903021703 25 325 0.0 0.0 0.00 0.00 0.00 84 1012.6
20260903020710 25 325 0.0 3.2 0.00 0.00 0.00 82 1013.1
20260903015659 25 325 0.0 3.2 0.00 0.00 0.00 81 1013.4
20260903014655 26 325 0.0 3.2 0.00 0.00 0.00 79 1013.3
20260903013655 26 325 3.2 8.0 0.00 0.00 0.00 78 1013.3
20260903012656 27 350 6.4 14.5 0.00 0.00 0.00 76 1013.0
20260903011657 27 306 6.4 11.3 0.00 0.00 0.00 70 1013.0
20260903010655 27 323 3.2 8.0 0.00 0.00 0.00 67 1012.6
20260903005654 27 210 0.0 3.2 0.00 0.00 0.00 66 1012.4
20260903004656 28 192 3.2 8.0 0.00 0.00 0.00 65 1012.3
20260903003659 28 192 6.4 14.5 0.00 0.00 0.00 64 1012.2
20260903002654 28 181 8.0 37.0 0.00 0.00 0.00 72 1012.2
20260903001656 27 193 3.2 8.0 0.00 0.00 0.00 76 1011.9
20260903000653 29 234 0.0 6.4 0.00 0.00 0.00 70 1012.1
20260902235653 30 182 0.0 6.4 0.00 0.00 0.00 67 1011.9
20260902234653 30 186 3.2 14.5 0.00 0.00 0.00 67 1012.3
20260902233652 30 171 0.0 6.4 0.00 0.00 0.00 67 1012.3
20260902232652 30 190 0.0 3.2 0.00 0.00 0.00 67 1012.2
20260902231652 30 185 0.0 6.4 0.00 0.00 0.00 66 1012.3
20260902230650 30 180 3.2 11.3 0.00 0.00 0.00 66 1012.4
20260902225658 31 182 3.2 14.5 0.00 0.00 0.00 65 1012.4
20260902224651 31 227 3.2 6.4 0.00 0.00 0.00 64 1012.4
20260902223650 31 206 6.4 19.3 0.00 0.00 0.00 63 1012.1
20260902222649 31 200 6.4 19.3 0.00 0.00 0.00 61 1011.8
20260902221651 32 238 3.2 25.7 0.00 0.00 0.00 62 1011.8
20260902220649 31 334 3.2 14.5 0.00 0.00 0.00 62 1011.8
20260902215645 32 180 3.2 11.3 0.00 0.00 0.00 61 1011.9
20260902214648 32 159 3.2 8.0 0.00 0.00 0.00 60 1011.7
20260902213650 32 175 6.4 17.7 0.00 0.00 0.00 59 1011.7
20260902212642 32 140 6.4 22.5 0.00 0.00 0.00 57 1011.8
20260902211645 32 252 6.4 25.7 0.00 0.00 0.00 59 1011.9
20260902210641 32 169 6.4 32.2 0.00 0.00 0.00 59 1012.1
20260902205640 31 154 3.2 11.3 0.00 0.00 0.00 60 1012.2
20260902204643 32 229 6.4 22.5 0.00 0.00 0.00 58 1012.3
20260902203641 32 171 8.0 37.0 0.00 0.00 0.00 58 1012.3
20260902202640 32 144 6.4 25.7 0.00 0.00 0.00 57 1012.3
20260902201640 32 260 3.2 17.7 0.00 0.00 0.00 59 1012.5
20260902200648 32 224 6.4 14.5 0.00 0.00 0.00 58 1012.7
20260902195640 32 198 6.4 22.5 0.00 0.00 0.00 56 1012.7
20260902194636 33 206 3.2 19.3 0.00 0.00 0.00 59 1012.8
20260902193632 33 355 3.2 19.3 0.00 0.00 0.00 58 1012.9
20260902192633 32 271 6.4 17.7 0.00 0.00 0.00 57 1013.1
20260902191634 33 355 6.4 14.5 0.00 0.00 0.00 54 1013.3
20260902190631 32 169 6.4 17.7 0.00 0.00 0.00 55 1013.3
20260902185635 33 333 3.2 14.5 0.00 0.00 0.00 57 1013.3
20260902184634 33 261 6.4 14.5 0.00 0.00 0.00 57 1013.3
20260902183633 33 225 3.2 17.7 0.00 0.00 0.00 58 1013.3
20260902182629 32 311 3.2 22.5 0.00 0.00 0.00 61 1013.3
20260902181628 32 203 6.4 22.5 0.00 0.00 0.00 60 1013.4
20260902180630 32 265 3.2 14.5 0.00 0.00 0.00 61 1013.3
20260902175628 32 196 8.0 25.7 0.00 0.00 0.00 62 1013.3
20260902174628 32 244 6.4 17.7 0.00 0.00 0.00 63 1013.6
20260902173625 31 161 3.2 11.3 0.00 0.00 0.00 66 1013.8
20260902172625 31 310 6.4 14.5 0.00 0.00 0.00 63 1013.9
20260902171623 31 275 6.4 14.5 0.00 0.00 0.00 64 1014.2
20260902170630 31 247 3.2 17.7 0.00 0.00 0.00 67 1014.4
20260902165621 31 300 6.4 11.3 0.00 0.00 0.00 69 1014.4
20260902164621 31 283 3.2 6.4 0.00 0.00 0.00 69 1014.5
20260902163621 31 341 6.4 11.3 0.00 0.00 0.00 68 1014.7
20260902162622 31 184 6.4 17.7 0.00 0.00 0.00 70 1014.7
20260902161625 31 334 6.4 22.5 0.00 0.00 0.00 68 1014.7
20260902160622 30 344 6.4 25.7 0.00 0.00 0.00 67 1014.6
20260902155622 31 227 3.2 14.5 0.00 0.00 0.00 67 1014.6
20260902154624 31 250 3.2 14.5 0.00 0.00 0.00 68 1014.4
20260902153619 31 177 6.4 17.7 0.00 0.00 0.00 69 1014.3
20260902152619 30 269 3.2 14.5 0.00 0.00 0.00 71 1014.3
20260902151624 30 323 3.2 11.3 0.00 0.00 0.00 71 1014.3
20260902150618 30 313 3.2 14.5 0.00 0.00 0.00 71 1014.3
20260902145616 29 240 3.2 11.3 0.00 0.00 0.00 74 1014.3
20260902144620 29 233 3.2 14.5 0.00 0.00 0.00 75 1014.3
20260902143621 28 254 0.0 14.5 0.00 0.00 0.00 77 1014.2
20260902142618 28 200 0.0 6.4 0.00 0.00 0.00 79 1014.3
20260902141622 28 188 0.0 14.5 0.00 0.00 0.00 81 1014.2
20260902140618 27 186 0.0 6.4 0.00 0.00 0.00 83 1014.3
20260902135614 27 188 3.2 11.3 0.00 0.00 0.00 83 1014.2
20260902134612 26 193 3.2 14.5 0.00 0.00 0.00 85 1014.3
20260902133612 26 175 3.2 11.3 0.00 0.00 0.00 87 1014.4
20260902132614 26 173 0.0 8.0 0.00 0.00 0.00 89 1014.5
20260902131614 25 225 3.2 14.5 0.00 0.00 0.00 90 1014.4
20260902130614 25 171 3.2 14.5 0.00 0.00 0.00 91 1014.4
20260902125618 25 176 3.2 11.3 0.00 0.00 0.00 92 1014.4
20260902124610 25 174 3.2 14.5 0.00 0.00 0.00 92 1014.4
20260902123607 24 165 0.0 8.0 0.00 0.00 0.00 93 1014.5
20260902122607 24 212 0.0 0.0 0.00 0.00 0.00 93 1014.4
20260902121607 24 188 0.0 3.2 0.00 0.00 0.00 92 1014.4
20260902120608 24 178 0.0 6.4 0.00 0.00 0.00 92 1014.4
20260902115608 24 274 0.0 6.4 0.00 0.00 0.00 92 1014.3
20260902114608 24 173 3.2 14.5 0.00 0.00 0.00 92 1014.2
20260902113608 24 160 0.0 11.3 0.00 0.00 0.00 92 1014.2
20260902112629 24 148 0.0 3.2 0.00 0.00 0.00 92 1014.1
20260902111604 24 170 0.0 6.4 0.00 0.00 0.00 92 1014.0
20260902110605 24 178 0.0 8.0 0.00 0.00 0.00 93 1014.1
20260902105601 24 315 3.2 11.3 0.00 0.00 0.00 93 1014.4
20260902104603 24 326 3.2 14.5 0.00 0.00 0.00 93 1014.7
20260902103602 24 304 0.0 8.0 0.00 0.00 0.00 93 1014.6
20260902102601 24 277 0.0 11.3 0.00 0.00 0.00 92 1014.4
20260902101602 24 323 0.0 6.4 0.00 0.00 0.00 92 1014.4
20260902100605 24 234 0.0 3.2 0.00 0.00 0.00 92 1014.0
20260902095604 24 236 0.0 3.2 0.00 0.00 0.00 92 1013.9
20260902094600 24 236 0.0 3.2 0.00 0.00 0.00 92 1014.0
20260902093558 24 236 0.0 3.2 0.00 0.00 0.00 92 1014.1
20260902092558 24 236 0.0 3.2 0.00 0.00 0.00 92 1014.2
20260902091600 24 236 0.0 3.2 0.00 0.00 0.00 92 1014.2
20260902090558 24 181 0.0 3.2 0.00 0.00 0.00 92 1014.2
20260902085600 24 184 0.0 3.2 0.00 0.00 0.00 92 1014.1
20260902084559 24 178 0.0 3.2 0.00 0.00 0.00 92 1013.9
20260902083600 24 178 0.0 14.5 0.00 0.00 0.00 92 1013.9
20260902082600 23 171 0.0 6.4 0.00 0.00 0.00 92 1013.9
20260902081557 23 188 0.0 6.4 0.00 0.00 0.00 91 1013.9
20260902080600 23 188 0.0 0.0 0.00 0.00 0.00 91 1014.0
20260902075556 23 163 0.0 0.0 0.00 0.00 0.00 91 1014.1
20260902074552 23 163 0.0 0.0 0.00 0.00 0.00 90 1014.1
20260902073556 23 163 0.0 0.0 0.00 0.00 0.00 90 1013.9
20260902072554 23 163 0.0 0.0 0.00 0.00 0.00 90 1013.7
20260902071554 23 163 0.0 0.0 0.00 0.00 0.00 90 1013.8
20260902070552 23 163 0.0 0.0 0.00 0.00 0.00 89 1013.9
20260902065554 23 163 0.0 0.0 0.00 0.00 0.00 89 1013.8
20260902064551 23 163 0.0 0.0 0.00 0.00 0.00 89 1013.8